Lumberton, NC

1:05 AM EDT on April 25, 2018 (GMT -0400)
Lumberton Municipal

Weather History for KLBT - January, 2013

Change the Weather History Date:

Sunday, January 27, 2013

  Actual Average Record
Temperature  
Mean Temperature 34 °F 44 °F  
Max Temperature 43 °F 54 °F 71 °F (1999)
Min Temperature 25 °F 33 °F 17 °F (2000)
Degree Days  
Heating Degree Days 31 21  
Month to date heating degree days 473 588  
Since 1 July heating degree days 1487 1638  
Cooling Degree Days 0 0  
Month to date cooling degree days 0 0  
Year to date cooling degree days 0 0  
Moisture  
Dew Point 26 °F    
Average Humidity 79    
Maximum Humidity 100    
Minimum Humidity 57    
Precipitation  
Precipitation 0.00 in 0.13 in 0.28 in (2012)
Month to date precipitation 1.10 2.50  
Year to date precipitation 1.10 2.50  
Sea Level Pressure  
Sea Level Pressure 30.51 in    
Wind  
Wind Speed 4 mph (NE)    
Max Wind Speed 12 mph    
Max Gust Speed 16 mph    
Visibility 3 miles    
Events Fog    
T = Trace of Precipitation, MM = Missing Value Source: NWS Daily Summary

Daily Weather History Graph

Daily Weather History Graph

Search for Another Location

Airport or City:

Astronomy

Jan. 27, 2013 Rise Set
Actual Time 7:17 AM EST 5:40 PM EST
Civil Twilight 6:50 AM EST 6:07 PM EST
Nautical Twilight 6:20 AM EST 6:38 PM EST
Astronomical Twilight 5:50 AM EST 7:07 PM EST
Moon 6:29 PM EST (1/27) 7:12 AM EST (1/27)
Length of Visible Light 11h 16m
Length of Day
10h 23m
Full, 100% of the Moon is Illuminated
Jan 27
Full
Feb 3
Last Quarter
Feb 10
New
Feb 17
First Quarter
Feb 25
Full

Hourly Weather History & Observations

Time (EST) Temp. Windchill Dew Point Humidity Pressure Visibility Wind Dir Wind Speed Gust Speed Precip Events Conditions
12:54 AM 30.0 °F 26.5 °F 28.0 °F 92% 30.40 in 3.0 mi ENE 3.5 mph - N/A   Clear
1:45 AM 28.4 °F - 26.6 °F 93% 30.42 in 2.5 mi Calm Calm - N/A   Clear
1:54 AM 28.9 °F - 26.1 °F 89% 30.42 in 2.5 mi Calm Calm - N/A   Clear
2:54 AM 28.9 °F - 27.0 °F 92% 30.43 in 2.0 mi Calm Calm - N/A   Clear
3:54 AM 27.0 °F 21.6 °F 25.0 °F 92% 30.44 in 2.0 mi NNE 4.6 mph - N/A   Clear
4:25 AM 26.6 °F 20.0 °F 24.8 °F 93% 30.45 in 1.8 mi North 5.8 mph - N/A   Clear
4:54 AM 26.1 °F 21.9 °F 24.1 °F 92% 30.45 in 2.0 mi NNE 3.5 mph - N/A   Clear
5:27 AM 26.6 °F 22.6 °F 24.8 °F 93% 30.45 in 1.8 mi NE 3.5 mph - N/A   Scattered Clouds
5:36 AM 26.6 °F 21.2 °F 24.8 °F 93% 30.45 in 1.8 mi NNE 4.6 mph - N/A   Mostly Cloudy
5:43 AM 26.6 °F 21.2 °F 26.6 °F 100% 30.45 in 1.2 mi NNE 4.6 mph - N/A   Mostly Cloudy
5:47 AM 26.6 °F 20.0 °F 26.6 °F 100% 30.46 in 0.8 mi NNE 5.8 mph - N/A   Overcast
5:54 AM 27.0 °F 18.7 °F 26.1 °F 96% 30.47 in 0.5 mi NNE 8.1 mph - N/A Fog Light Freezing Fog
6:06 AM 26.6 °F 19.1 °F 24.8 °F 93% 30.46 in 1.2 mi NNE 6.9 mph - N/A   Mostly Cloudy
6:12 AM 26.6 °F 20.0 °F 24.8 °F 93% 30.46 in 1.8 mi NE 5.8 mph - N/A   Scattered Clouds
6:24 AM 26.6 °F 22.6 °F 24.8 °F 93% 30.47 in 2.0 mi NE 3.5 mph - N/A   Partly Cloudy
6:54 AM 26.1 °F 21.9 °F 24.1 °F 92% 30.50 in 2.5 mi NNE 3.5 mph - N/A   Clear
7:26 AM 26.6 °F 21.2 °F 24.8 °F 93% 30.51 in 1.8 mi NE 4.6 mph - N/A   Clear
7:54 AM 26.1 °F 19.4 °F 24.1 °F 92% 30.53 in 1.8 mi NE 5.8 mph - N/A   Clear
8:26 AM 26.6 °F 21.2 °F 24.8 °F 93% 30.52 in 1.8 mi NE 4.6 mph - N/A   Partly Cloudy
8:54 AM 27.0 °F 19.5 °F 25.0 °F 92% 30.55 in 1.8 mi NE 6.9 mph - N/A   Clear
9:06 AM 28.4 °F 20.4 °F 24.8 °F 86% 30.55 in 2.0 mi NNE 8.1 mph - N/A   Partly Cloudy
9:13 AM 28.4 °F 21.2 °F 26.6 °F 93% 30.56 in 1.8 mi NE 6.9 mph - N/A   Partly Cloudy
9:36 AM 30.2 °F 23.4 °F 26.6 °F 86% 30.57 in 2.0 mi NNE 6.9 mph - N/A   Scattered Clouds
9:54 AM 30.9 °F 24.3 °F 27.0 °F 85% 30.58 in 2.0 mi NE 6.9 mph - N/A   Partly Cloudy
10:51 AM 33.8 °F 25.8 °F 28.4 °F 81% 30.59 in 3.0 mi ENE 10.4 mph - N/A   Haze
10:54 AM 34.0 °F 26.0 °F 28.0 °F 79% 30.59 in 3.0 mi ENE 10.4 mph - N/A   Haze
11:54 AM 36.0 °F 29.0 °F 28.0 °F 73% 30.59 in 3.0 mi NNE 9.2 mph - N/A   Haze
12:54 PM 39.0 °F 35.7 °F 28.0 °F 65% 30.56 in 4.0 mi Variable 4.6 mph - N/A   Haze
1:54 PM 41.0 °F 35.8 °F 28.0 °F 60% 30.54 in 4.0 mi NNE 8.1 mph - N/A   Haze
2:54 PM 42.1 °F 37.7 °F 28.9 °F 60% 30.53 in 4.0 mi ENE 6.9 mph - N/A   Haze
3:54 PM 42.1 °F - 28.0 °F 58% 30.53 in 5.0 mi Calm Calm - N/A   Haze
4:54 PM 42.1 °F - 28.0 °F 58% 30.53 in 5.0 mi Calm Calm - N/A   Haze
5:54 PM 39.0 °F 36.8 °F 27.0 °F 62% 30.54 in 5.0 mi NE 3.5 mph - N/A   Haze
6:54 PM 37.0 °F 34.5 °F 27.0 °F 67% 30.53 in 6.0 mi NE 3.5 mph - N/A   Haze
7:54 PM 33.1 °F - 27.0 °F 78% 30.55 in 5.0 mi Calm Calm - N/A   Haze
8:54 PM 33.1 °F 30.0 °F 27.0 °F 78% 30.54 in 5.0 mi NE 3.5 mph - N/A   Haze
9:54 PM 34.0 °F - 27.0 °F 75% 30.53 in 5.0 mi Calm Calm - N/A   Haze
10:54 PM 35.1 °F - 28.0 °F 76% 30.53 in 5.0 mi Calm Calm - N/A   Haze
11:54 PM 36.0 °F - 28.0 °F 73% 30.52 in 6.0 mi Calm Calm - N/A   Haze